{"data":{"norad_id":58358,"epoch":"2026-09-20T21:16:46.026048Z","epoch_age_seconds":110188,"freshness":"FRESH","line1":"1 58358U 23177H   26263.88664382  .00000869  00000+0  41107-4 0  9992","line2":"2 58358  43.0023 327.9534 0001283 282.4160  77.6548 15.27573396158091","mean_motion":15.27573396,"eccentricity":0.0001283,"inclination_deg":43.0023,"raan_deg":327.9534,"arg_perigee_deg":282.416,"mean_anomaly_deg":77.6548,"bstar":4.1107e-5,"rev_number":15809,"period_min":94.267156247332,"perigee_km":482.18857814944,"apogee_km":483.9491635759,"semimajor_km":6861.2058708627,"source":"CELESTRAK","updated_at":"2026-09-21T09:00:33.842171Z"}}